Location: Dürabuch
(48.2640°N, 11.2185°E)
Time: 08:41:00
(UTC+00:00)

SAR-Lupe-4 - Pass Details

Date: 23 May 2024
Orbit: 476 x 482 km, 98.1° (Epoch: 02 April)

Event Time Altitude Azimuth Distance (km) Brightness Sun altitude
Rises 02:09:24 0° 14° (NNE) 2,553 8.4 -10.5°
Reaches altitude 10° 02:11:28 10° 14° (NNE) 1,668 7.4 -10.3°
Maximum altitude 02:15:03 88° 105° (ESE) 488 3.5 -9.9°
Drops below altitude 10° 02:18:37 10° 194° (SSW) 1,653 5.7 -9.5°
Enters shadow 02:18:38 10° 194° (SSW) 1,662 5.7 -9.4°
